Location: Silverdale
(47.6506°N, 122.6941°W)
Time: 15:48:22
(UTC+00:00)

Tiros 1 despin weight - All Passes

Search period start: 26 September 2022 00:00
Search period end: 06 October 2022 00:00
Orbit: 590 x 639 km, 48.2° (Epoch: 23 September)

Date Brightness Start Highest point End Pass type
(mag) Time Alt. Az. Time Alt. Az. Time Alt. Az.
26 Sep - 02:18:38 10° SSW 02:22:15 24° SE 02:25:57 10° E daylight
26 Sep - 03:58:43 10° WSW 04:03:15 69° SSE 04:07:53 10° ENE visible
26 Sep - 05:40:10 10° W 05:44:48 83° N 05:49:29 10° E visible
26 Sep - 07:21:43 10° WNW 07:26:19 64° SSW 07:30:57 10° ESE night (unlit)
26 Sep - 09:03:44 10° W 09:07:17 22° SW 09:10:49 10° S night (unlit)
27 Sep - 02:33:13 10° SW 02:37:24 37° SSE 02:41:41 10° E visible
27 Sep - 04:14:04 10° WSW 04:18:39 87° S 04:23:20 10° E visible
27 Sep - 05:55:37 10° W 06:00:15 88° N 06:04:57 10° E visible
27 Sep - 07:37:11 10° W 07:41:37 45° SSW 07:46:04 10° SE night (unlit)
27 Sep - 09:20:18 10° WSW 09:22:18 13° SW 09:24:17 10° SSW night (unlit)
28 Sep - 01:08:56 10° S 01:11:51 17° SE 01:14:48 10° E daylight
28 Sep - 02:48:13 10° SW 02:52:40 56° SSE 02:57:11 10° E visible
28 Sep - 04:29:29 10° W 04:34:06 84° N 04:38:47 10° E visible
28 Sep - 06:11:03 10° W 06:15:41 77° SSW 06:20:20 10° ESE visible
28 Sep - 07:52:47 10° W 07:56:49 29° SW 08:00:50 10° SSE night (unlit)
29 Sep - 01:23:04 10° SSW 01:26:55 28° SE 01:30:49 10° E daylight
29 Sep - 03:03:27 10° WSW 03:08:00 76° SSE 03:12:37 10° E visible
29 Sep - 04:44:57 10° W 04:49:34 84° N 04:54:14 10° E visible
29 Sep - 06:26:29 10° W 06:31:01 57° SSW 06:35:36 10° SE visible
29 Sep - 08:08:45 10° W 08:11:53 18° SW 08:15:03 10° S night (unlit)
29 Sep - 23:59:57 10° SSE 00:01:29 12° SE 00:03:01 10° ESE daylight
30 Sep - 01:37:49 10° SW 01:42:05 43° SSE 01:46:26 10° E daylight
30 Sep - 03:18:50 10° W 03:23:25 89° N 03:28:03 10° E visible
30 Sep - 05:00:23 10° W 05:05:00 87° SSW 05:09:41 10° ESE visible
30 Sep - 06:41:59 10° W 06:46:17 39° SSW 06:50:37 10° SE visible
01 Oct - 00:13:10 10° S 00:16:27 20° SE 00:19:48 10° E daylight
01 Oct - 01:52:54 10° WSW 01:57:21 63° SSE 02:01:55 10° ENE daylight
01 Oct - 03:34:16 10° W 03:38:51 83° N 03:43:30 10° E visible
01 Oct - 05:15:48 10° WNW 05:20:23 70° SSW 05:25:02 10° ESE visible
01 Oct - 06:57:39 10° W 07:01:26 25° SW 07:05:13 10° SSE night (unlit)
02 Oct - 00:27:33 10° SSW 00:31:33 32° SSE 00:35:38 10° E daylight
02 Oct - 02:08:11 10° WSW 02:12:43 82° SSE 02:17:20 10° E daylight
02 Oct - 03:49:42 10° W 03:54:18 86° N 03:58:57 10° E visible
02 Oct - 05:31:15 10° W 05:35:42 50° SSW 05:40:12 10° SE visible
02 Oct - 07:13:52 10° WSW 07:16:28 15° SW 07:19:05 10° S night (unlit)
02 Oct - 23:03:41 10° SSE 23:06:02 14° SE 23:08:25 10° ESE daylight
03 Oct - 00:42:25 10° SW 00:46:45 49° SSE 00:51:10 10° E daylight
03 Oct - 02:23:35 10° W 02:28:07 86° N 02:32:45 10° E visible
03 Oct - 04:05:07 10° W 04:09:43 82° SSW 04:14:21 10° ESE visible
03 Oct - 05:46:47 10° W 05:50:55 33° SSW 05:55:05 10° SSE visible
03 Oct - 23:17:29 10° SSW 23:21:03 24° SE 23:24:41 10° E daylight
04 Oct - 00:57:35 10° WSW 01:02:03 70° SSE 01:06:36 10° ENE daylight
04 Oct - 02:39:01 10° W 02:43:34 83° N 02:48:12 10° E visible
04 Oct - 04:20:32 10° WNW 04:25:04 63° SSW 04:29:39 10° ESE visible
04 Oct - 06:02:34 10° W 06:06:01 21° SW 06:09:29 10° S visible
04 Oct - 23:32:04 10° SW 23:36:10 37° SSE 23:40:22 10° E daylight
05 Oct - 01:12:54 10° WSW 01:17:25 87° S 01:22:01 10° E daylight
05 Oct - 02:54:27 10° W 02:59:00 89° N 03:03:38 10° E visible
05 Oct - 04:35:59 10° W 04:40:20 44° SSW 04:44:44 10° SE visible
05 Oct - 06:19:12 10° WSW 06:21:00 12° SW 06:22:48 10° SSW visible
05 Oct - 22:07:44 10° S 22:10:36 17° SE 22:13:30 10° E daylight
05 Oct - 23:47:02 10° SW 23:51:24 56° SSE 23:55:51 10° E daylight
